Lapse_Rate
2.4 2.7 3.8 3.9 3.5 2.9 3.2 3.7 3.7 4.7 5.4 5.7 5.7 5.5 5.3 5.4 5.4 5.4 5.5 5.2 5.1 4.5 4.9 4.8 4.9 4.2 3.1 3.0 2.7 2.5 2.5 3.0 4.5 4.8 5.2 5.6 6.1 6.5 6.8 6.4 5.2 5.4 4.7
2.6 3.2 3.8 4.3 4.0 3.8 4.2 4.4 4.9 5.4 5.5 5.2 5.4 5.5 5.5 5.4 5.2 5.3 5.1 5.7 5.2 5.2 4.5 4.3 4.7 5.3 4.2 3.7 2.6 2.5 2.4 2.7 3.8 4.5 4.7 4.8 4.6 5.4 6.2 6.0 5.9 6.8 5.3
3.6 3.5 3.7 4.0 3.4 3.6 3.9 4.4 5.0 5.0 5.0 5.3 5.6 5.4 5.2 5.1 5.0 4.8 4.8 4.9 4.6 4.8 4.2 4.2 4.4 4.7 4.1 3.6 3.2 2.9 2.7 3.0 2.7 3.9 4.8 5.2 4.7 4.2 4.7 5.8 5.6 4.8 5.5
4.5 4.2 3.9 3.4 2.5 3.0 3.3 3.8 4.3 4.2 4.2 4.7 5.0 5.0 4.9 5.0 5.1 5.0 4.8 4.1 4.4 4.7 4.2 4.3 4.5 4.3 4.2 3.9 3.5 3.0 2.9 2.8 3.1 3.8 5.0 4.8 4.8 5.4 3.8 5.1 5.8 5.0 5.1
4.7 4.0 4.1 3.2 2.6 3.0 3.1 3.2 3.7 4.1 4.3 4.8 5.0 4.9 5.0 5.4 6.7 5.7 6.3 5.7 5.0 4.2 4.0 4.1 4.4 4.5 6.1 4.7 3.9 3.9 3.2 3.5 3.4 4.3 5.5 6.0 6.5 6.5 5.8 4.5 5.0 5.9 5.1
4.2 4.3 3.5 3.3 2.7 2.7 2.7 2.9 3.6 3.9 4.3 5.0 4.9 5.2 5.2 6.0 6.1 5.9 4.9 4.4 4.6 4.0 4.1 4.0 4.0 5.5 5.4 6.1 6.0 6.2 4.9 4.5 4.0 4.8 5.8 5.8 5.3 5.7 6.4 5.8 5.6 6.0 5.8
2.4 3.7 4.0 3.9 2.9 2.8 2.6 3.3 3.9 4.0 4.7 4.7 4.2 4.8 4.9 4.6 4.5 4.6 4.4 4.1 3.9 3.5 3.9 3.7 3.9 4.5 4.9 4.1 4.8 5.0 5.1 5.2 5.9 5.3 5.2 5.9 6.2 6.4 6.5 5.9 5.7 6.0 6.2
2.1 2.8 2.9 2.1 2.5 2.4 2.9 3.9 4.4 4.1 4.3 4.1 3.7 4.2 4.2 4.7 4.1 3.5 2.9 3.0 3.2 3.3 3.0 3.1 4.0 4.1 4.0 4.2 3.5 3.3 3.7 3.9 4.4 4.9 6.2 6.1 6.2 6.5 6.1 5.9 6.2 5.9 5.7
2.3 3.9 2.6 2.3 2.7 2.6 3.4 4.1 4.1 4.4 4.1 3.8 4.2 4.2 4.3 4.3 2.5 1.9 2.5 2.9 2.6 2.9 3.8 3.8 4.5 4.0 3.1 2.6 3.1 2.8 3.1 4.0 5.0 4.5 4.6 4.6 5.0 5.7 5.4 5.1 6.2 6.2 5.9
2.9 2.9 1.4 2.2 2.6 3.3 3.8 3.9 4.3 4.3 4.1 3.5 4.0 4.2 4.0 2.4 2.6 2.2 1.8 2.1 2.1 2.7 2.9 3.5 3.9 3.1 2.1 2.0 2.9 3.0 4.0 3.7 3.4 4.1 4.5 4.1 5.8 5.7 4.5 3.9 5.5 6.3 6.2
3.1 1.1 2.1 2.6 3.1 3.4 3.5 3.3 3.8 3.7 2.6 2.6 3.1 3.6 4.2 4.3 2.3 1.8 1.3 2.7 2.9 2.6 2.6 4.8 2.9 2.1 1.5 1.4 1.3 2.7 3.1 2.8 3.2 4.1 4.4 4.8 5.9 6.0 4.9 3.3 3.9 4.0 5.0
2.6 2.9 3.3 3.2 4.8 5.0 3.4 3.7 3.9 2.5 3.7 3.8 3.3 3.7 2.8 4.0 2.2 2.8 2.1 0.8 1.9 2.0 2.7 4.5 2.3 1.7 1.8 2.0 1.9 1.9 2.6 2.9 3.1 3.8 5.0 5.5 6.0 5.9 3.6 4.2 4.1 3.2 3.8
3.5 4.2 4.3 4.2 4.3 3.8 3.3 3.7 3.1 3.6 3.1 4.0 3.1 3.6 3.7 2.9 1.9 2.3 3.2 2.6 2.8 2.2 2.8 3.5 2.1 1.8 2.8 2.4 2.3 2.7 3.0 3.0 3.3 4.1 4.9 5.7 5.3 5.6 4.9 4.3 4.2 3.6 3.9
3.9 4.7 4.5 4.7 4.9 3.8 2.0 2.3 3.2 3.0 2.4 3.2 3.3 3.4 3.3 2.0 0.3 0.4 1.2 0.9 1.7 1.9 1.5 1.2 3.8 3.3 3.0 3.0 2.3 3.2 3.6 3.4 3.5 3.7 4.1 4.4 4.6 5.9 5.7 3.3 3.3 5.2 5.0
2.6 4.0 3.6 4.1 3.5 0.2 -1.1 -0.6 1.4 -2.6 -1.7 1.9 1.9 1.8 2.0 1.7 1.0 -1.8 -1.5 -0.0 -0.0 -0.1 -1.1 2.6 4.3 3.2 1.9 1.6 4.6 4.0 3.9 3.5 2.9 2.9 3.4 3.8 4.2 5.6 5.7 5.5 4.0 2.4 3.0
1.9 3.0 4.1 3.7 2.9 0.7 -0.7 -2.4 -4.5 -4.1 -4.3 -3.8 -3.0 0.8 -0.2 -0.0 -0.9 -1.4 -2.1 -2.4 -1.9 -1.2 1.6 3.3 3.1 2.7 2.5 4.6 4.4 4.0 3.7 3.8 3.5 3.7 3.4 3.1 3.8 4.5 5.8 5.3 5.5 5.6 4.7
4.0 3.4 4.2 3.3 3.6 2.2 0.5 -0.4 -1.3 -1.8 -2.3 -2.1 -1.3 -0.4 0.5 1.1 -0.2 -1.0 -1.0 -1.0 0.9 3.8 3.0 2.9 2.6 3.2 4.3 3.6 3.8 4.3 4.0 4.3 3.6 3.9 3.8 3.2 2.9 4.0 4.2 5.9 5.8 5.3 5.3
5.0 3.6 4.2 4.2 3.2 2.7 3.4 3.6 2.6 2.0 1.8 2.0 -0.1 1.5 1.3 1.1 -0.5 0.0 1.6 4.4 4.8 3.6 2.4 2.0 1.7 1.8 2.0 2.0 2.4 2.4 2.7 3.7 4.0 3.7 5.6 5.0 3.4 3.1 3.9 5.0 5.4 5.4 5.1
4.8 4.3 3.3 2.2 2.2 2.8 2.9 3.0 3.5 3.8 4.3 3.9 2.5 2.4 2.8 2.8 2.4 2.6 2.9 3.3 3.2 3.3 2.6 1.9 1.8 1.5 2.1 2.1 1.6 1.8 2.2 2.8 3.8 4.9 5.8 5.7 4.8 3.9 3.8 4.4 3.9 3.2 3.8
3.6 4.2 4.2 3.5 3.8 3.1 3.0 2.9 2.7 3.1 3.8 4.0 3.7 3.9 3.2 4.0 4.5 5.1 4.5 4.4 5.1 4.4 3.7 2.9 2.3 1.8 1.5 1.3 0.9 2.0 2.4 2.2 3.3 3.6 4.6 5.4 5.3 5.6 5.2 4.1 4.0 3.3 2.9
4.2 3.9 4.0 3.5 3.6 3.1 3.4 3.5 3.8 4.1 4.2 4.4 3.6 1.2 0.4 3.7 4.3 5.0 5.7 5.6 5.4 6.2 5.6 5.1 4.1 2.9 2.1 1.4 0.5 0.1 0.6 1.9 1.6 2.0 2.5 3.4 4.9 5.4 5.3 5.5 5.0 4.4 3.1
4.6 4.6 5.2 5.2 3.8 4.0 4.6 4.6 4.8 5.0 4.0 3.3 1.6 0.9 2.6 3.1 3.8 4.8 7.7 8.1 7.5 6.8 5.9 4.6 4.2 3.8 2.4 0.9 -0.1 -0.8 -0.8 -0.1 0.5 0.6 1.6 2.0 4.2 4.5 4.8 5.2 5.2 5.0 4.9
5.6 5.1 3.8 3.7 4.3 5.2 6.2 6.2 5.1 5.3 5.4 4.8 3.9 2.6 2.9 3.6 3.6 4.2 5.2 5.5 6.5 4.8 3.9 3.8 3.2 2.3 1.6 1.0 0.0 -1.4 -1.7 -1.8 -1.4 0.1 0.2 1.4 3.6 3.9 4.5 4.6 5.0 4.8 5.2
4.9 5.1 4.8 4.5 4.8 5.4 6.0 5.0 4.1 5.1 5.1 5.1 4.2 3.8 3.7 4.2 4.5 4.7 5.2 5.5 4.9 4.8 4.3 3.3 2.4 1.5 0.5 0.3 0.3 -0.7 -2.1 -2.3 -1.4 -1.1 -0.7 0.9 2.8 3.3 4.3 4.9 4.7 5.4 5.0
5.8 5.2 5.3 5.3 4.3 4.1 5.0 4.8 5.1 5.0 4.8 5.3 5.0 5.2 4.4 4.4 4.6 5.1 5.2 4.9 4.9 4.9 4.7 3.8 2.8 2.4 1.6 0.8 -0.2 -0.8 -1.4 -1.6 -0.6 -1.2 0.0 2.1 3.1 3.0 3.4 4.2 4.6 4.5 5.1
6.8 6.7 6.5 5.5 4.8 4.1 4.1 4.3 5.3 4.8 4.7 4.9 4.7 4.4 4.5 4.9 4.6 4.8 5.0 5.5 4.9 4.8 4.6 4.5 3.9 2.9 2.7 1.7 0.8 0.8 0.8 0.9 0.5 0.7 1.5 2.6 2.0 2.1 2.7 3.9 4.9 4.9 5.3
Wind_Speed
11 9 7 7 7 7 6 6 5 4 4 4 4 4 5 5 5 4 4 5 5 5 3 4 4 3 1 1 1 1 2 2 6 10 10 14 15 13 14 17 19 18 17
10 10 8 8 6 7 6 6 5 5 4 5 4 4 4 5 6 6 6 4 5 5 6 5 6 4 3 3 2 5 4 4 6 13 12 11 14 13 15 12 9 16 12
12 10 8 8 8 8 7 6 5 6 6 5 4 5 6 7 7 7 6 7 5 6 6 6 6 6 6 4 5 5 4 4 6 7 11 10 10 11 11 13 11 11 13
14 12 11 10 9 8 7 7 7 7 6 6 7 7 7 7 7 7 7 6 6 6 7 6 7 7 7 6 5 7 5 5 6 7 9 11 10 13 9 10 11 7 10
15 14 14 10 8 8 8 8 7 7 7 7 6 5 6 5 5 4 2 4 6 7 7 7 7 8 10 9 5 8 7 8 6 8 10 11 11 12 11 10 12 11 10
15 15 12 11 10 9 8 8 7 7 7 6 5 5 6 4 5 8 4 5 5 6 6 6 6 9 8 13 14 19 15 9 10 7 11 13 17 13 11 11 10 11 9
13 12 13 13 11 11 9 7 7 8 6 6 4 4 6 6 9 8 5 3 5 5 6 6 6 5 8 7 10 15 14 16 19 11 15 16 17 15 15 15 14 12 12
12 9 11 9 10 9 7 8 8 5 6 5 6 6 5 5 6 5 2 4 5 7 6 7 7 7 7 5 6 6 6 8 11 11 14 17 18 19 18 16 16 14 13
11 11 10 10 9 7 7 7 6 5 5 6 5 6 5 5 3 5 5 5 5 5 5 7 7 5 3 6 4 6 7 10 11 20 26 29 31 30 27 13 13 12 11
10 11 8 8 8 8 8 8 7 5 7 3 4 4 4 5 5 9 6 1 5 4 5 6 6 6 4 1 2 5 8 10 13 17 18 22 26 19 29 17 14 11 11
8 7 8 8 8 8 9 6 6 6 2 5 5 5 3 2 6 8 6 1 4 3 4 6 3 3 5 6 6 4 7 12 16 11 15 16 17 13 10 9 15 14 10
8 7 7 8 9 8 8 6 6 5 2 6 7 5 2 2 5 2 4 5 7 2 4 5 3 3 7 6 4 10 14 14 8 10 13 16 17 15 13 7 14 14 13
6 4 5 7 7 5 5 4 3 4 2 10 5 3 1 3 5 8 4 6 5 3 3 4 7 7 5 5 9 11 11 7 8 9 11 13 16 14 14 3 9 15 14
17 6 6 5 1 4 6 4 1 2 2 4 3 3 3 4 4 4 4 4 7 6 6 5 5 6 5 3 5 7 6 6 8 8 10 11 12 15 13 12 6 6 10
10 5 7 3 5 4 4 0 3 2 0 3 2 3 4 3 1 3 3 4 3 5 7 2 5 3 3 4 6 6 6 7 8 9 10 11 11 13 14 13 11 8 6
7 7 4 0 2 4 5 5 14 9 5 8 6 6 3 6 3 3 7 10 9 8 2 4 3 2 4 4 5 6 6 9 8 8 9 10 10 10 12 12 11 11 9
5 3 1 3 3 6 5 6 6 1 2 5 7 9 9 4 7 9 10 7 3 6 4 3 3 4 5 6 6 6 7 7 8 7 8 9 10 11 14 12 10 11 14
1 1 2 1 4 4 5 5 6 6 4 3 1 2 3 4 7 9 12 7 6 6 4 4 4 4 4 4 4 5 6 7 7 9 8 8 9 9 9 10 10 9 8
3 2 4 5 5 6 5 5 5 5 4 5 4 3 2 4 3 8 10 4 4 4 4 4 3 3 3 3 3 4 5 7 7 7 8 8 9 8 9 9 10 14 11
4 3 5 5 5 5 5 5 5 4 4 5 4 3 1 3 2 2 3 3 3 3 4 4 2 2 1 2 4 4 4 6 8 8 8 8 8 7 8 8 7 8 8
4 4 7 5 5 5 5 4 4 4 4 5 5 4 7 4 2 2 1 2 1 1 4 3 2 2 1 2 4 5 5 5 7 7 7 8 8 7 6 6 7 7 8
4 4 4 4 4 4 4 4 4 4 8 7 5 4 8 3 2 1 2 0 0 3 4 5 4 4 4 4 4 4 5 5 6 8 8 7 7 7 6 6 6 7 8
4 4 5 3 4 4 3 2 3 4 4 6 7 6 4 4 4 3 3 3 3 5 4 5 5 5 6 8 9 5 4 4 5 6 6 7 6 8 6 4 5 5 7
5 5 5 4 4 3 3 1 3 5 5 4 7 6 5 5 5 5 4 1 4 5 5 5 5 6 6 8 10 9 10 10 10 8 7 5 5 8 6 6 4 7 6
4 6 5 5 5 5 3 3 3 3 4 4 4 4 7 5 5 5 4 4 4 4 6 8 10 11 10 8 8 9 11 13 11 15 9 5 7 9 8 5 7 4 8
5 4 4 3 4 5 4 4 2 3 4 5 5 5 5 5 5 5 5 4 4 5 6 7 13 15 13 8 6 9 13 17 18 21 13 5 6 6 5 6 10 6 7
Wind_Direction
167 170 183 196 192 183 174 194 204 213 216 218 222 238 252 269 278 274 244 244 256 247 236 242 251 188 197 237 274 271 268 251 297 309 302 308 302 278 274 252 233 239 234
166 169 172 172 175 189 188 194 202 202 223 224 234 250 262 270 270 260 245 240 230 249 255 236 244 204 218 228 244 268 254 253 283 305 306 307 304 303 284 267 252 252 243
172 161 167 172 184 190 185 188 200 206 218 235 237 242 249 255 258 259 238 237 237 247 253 229 228 209 228 225 234 251 245 259 264 284 303 301 298 299 305 280 258 248 245
175 171 171 182 185 193 190 195 204 212 220 234 229 233 242 249 253 258 259 240 230 246 245 236 227 222 226 228 233 249 247 253 267 281 299 301 298 298 297 295 276 251 243
176 174 180 180 178 186 191 199 201 210 221 226 235 248 262 257 256 216 246 237 240 248 250 247 239 243 237 217 228 260 238 259 269 283 301 302 301 303 294 296 294 267 246
177 177 174 174 180 189 199 204 204 219 227 226 234 236 263 259 223 240 220 260 258 261 272 275 259 265 274 264 263 259 250 257 265 273 295 293 291 285 280 278 276 279 254
159 164 172 176 181 195 200 195 203 214 206 225 239 234 264 262 263 268 266 287 287 280 266 270 277 257 263 269 273 269 270 265 261 278 286 288 287 282 279 272 259 261 256
164 172 171 169 183 198 191 193 212 202 209 216 232 242 250 258 281 254 330 278 258 250 252 267 257 267 270 300 312 309 282 273 276 278 279 281 279 281 269 257 252 254 267
163 190 177 174 194 189 191 200 210 200 218 213 223 250 247 271 113 155 210 258 286 308 295 291 271 280 14 27 338 298 293 290 299 291 289 290 285 280 266 247 230 233 239
184 192 175 173 176 188 193 201 204 194 215 177 267 255 256 167 173 210 204 271 297 297 297 307 328 84 74 5 318 290 303 303 307 313 313 310 310 287 296 218 214 225 217
183 157 165 177 185 198 207 194 193 181 155 272 236 263 279 1 195 211 222 285 268 290 327 317 44 83 83 41 338 306 297 298 296 320 318 315 321 318 313 204 203 211 227
159 167 177 189 205 215 199 181 195 156 246 1 279 274 355 69 81 346 327 259 287 321 297 297 109 109 68 15 348 321 322 317 319 327 323 328 324 334 328 232 207 211 224
112 127 179 206 208 203 157 136 42 41 66 250 248 242 99 68 70 54 354 323 318 13 342 355 148 96 63 16 343 337 344 336 334 333 328 329 326 333 331 327 194 204 215
338 36 6 352 46 63 56 81 51 182 244 225 98 95 100 106 53 10 349 343 345 349 348 320 194 105 70 19 356 349 341 339 347 327 327 322 324 346 0 7 14 195 203
257 323 286 195 210 122 87 335 154 78 112 94 109 113 102 99 13 252 275 300 305 297 324 356 82 37 355 19 357 348 343 343 348 343 335 337 340 342 3 8 16 22 28
213 242 248 248 60 135 143 80 37 76 47 75 77 112 63 121 169 276 271 253 246 249 136 77 65 34 32 6 355 353 350 351 339 344 342 345 343 338 359 7 11 24 29
169 200 285 277 220 144 133 139 142 298 42 77 86 79 87 81 4 331 311 269 303 101 73 55 52 43 25 15 359 355 357 353 338 338 347 351 346 356 0 9 6 16 26
123 174 224 193 142 120 138 165 154 161 162 160 299 74 50 18 354 357 14 57 59 55 65 55 50 28 20 10 354 343 335 345 357 357 347 355 358 358 4 9 7 5 14
91 40 112 112 98 103 95 89 89 96 109 114 97 43 0 300 304 51 30 61 87 72 71 61 55 43 7 354 341 339 339 346 353 360 358 2 359 4 7 7 5 4 360
116 112 121 124 115 108 115 110 107 125 146 122 119 138 57 58 49 47 69 64 84 125 124 138 164 179 245 327 339 336 347 357 6 359 353 1 360 1 17 14 2 2 4
146 119 126 115 123 138 135 132 164 198 143 138 141 141 136 114 94 55 55 93 57 47 123 159 192 194 265 30 33 11 2 8 0 355 353 347 355 0 358 7 2 11 13
118 149 156 132 149 154 155 178 210 170 149 152 150 155 135 126 125 350 333 69 209 93 95 81 66 53 62 63 47 33 8 11 359 351 345 341 352 351 348 2 9 18 20
151 125 92 94 131 134 153 232 238 178 150 159 150 149 167 161 153 174 262 289 108 92 97 90 82 58 57 60 64 49 36 6 334 335 330 333 350 3 357 350 5 9 22
126 122 140 168 166 198 180 100 104 126 126 106 157 157 166 172 174 179 211 109 108 97 111 101 97 89 68 57 54 54 27 7 351 333 319 329 354 3 3 11 5 17 13
177 178 197 203 198 202 200 203 160 187 156 142 126 117 144 173 172 177 164 140 133 127 120 131 120 113 96 79 62 38 24 19 8 359 353 359 16 8 10 16 11 3 28
311 209 179 188 172 172 146 127 121 140 134 136 134 125 126 117 119 126 125 119 141 136 145 139 147 136 127 113 81 44 30 19 16 12 12 25 33 8 10 14 15 10 28